[[{"header":{"parameterUnit":"m.s-1","parameterCategory":1,"la1":30.2991,"la2":30.254,"lo1":-89.0895,"lo2":-89.0444,"dy":0.0017,"dx":0.0017,"nx":28,"ny":28,"refTime":"2024-06-19T21:00:00:Z","depth":0,"parameterNumber":2,"parameterNumberName":"U-component_of_WINDS"},"data":[0,0,0,0,0,0,0,0,0,0,0,0,0,0,0,0,0,0,0,0,0,0,0,0,0,0,0,0,0,0,0,0,0,0,0,0,0,0,0,0,0,0,0,0,0,0,0,0,0,0,0,0,0,0,0,0,0,0,-5.4231,-5.4231,0,-5.4185,-5.4185,-5.4184,-5.4004,-5.4,-5.3996,-5.3992,-5.3947,-5.3949,-5.3952,0,0,0,0,0,0,0,0,0,0,0,0,0,-5.4166,-5.4168,-5.4231,-5.4231,-5.423,-5.4185,-5.4185,-5.4184,-5.4005,-5.4,-5.3995,-5.399,-5.3946,-5.3949,-5.3952,0,0,0,0,0,0,0,0,0,0,0,0,0,-5.4165,-5.4169,-5.4231,-5.4135,-5.4126,-5.4186,-5.4185,-5.4184,-5.4006,-5.4,-5.3993,-5.3987,-5.3945,-5.3949,-5.3953,-5.4102,0,0,-5.3965,-5.3967,0,0,0,0,0,0,0,0,-5.4165,-5.4168,-5.415,-5.4142,-5.4132,-5.4094,-5.4145,-5.4157,-5.4007,-5.4052,-5.3992,-5.3984,-5.4001,-5.4,-5.4005,-5.41,-5.4098,-5.3965,-5.3968,-5.3969,-5.3971,0,0,0,0,0,0,0,-5.4166,-5.4169,-5.4213,-5.415,-5.4139,-5.4095,-5.4088,-5.4147,-5.4062,-5.4047,-5.4034,-5.4031,-5.3995,-5.4002,-5.4003,-5.4097,-5.3965,-5.3969,-5.3971,-5.3973,-5.4314,-5.432,0,0,0,0,0,0,-5.4179,-5.417,-5.4214,-5.4212,-5.4134,-5.4102,-5.4094,-5.4112,-5.4061,-5.4047,-5.4036,-5.4023,-5.3998,-5.3998,-5.4,-5.4172,-5.3969,-5.3973,-5.3975,-5.4307,-5.4316,-5.4323,0,0,0,0,0,0,-5.4178,-5.4185,-5.4216,-5.4187,-5.4188,-5.4109,-5.4132,-5.4115,-5.4121,-5.4052,-5.4037,-5.4059,-5.3993,-5.3995,-5.4078,-5.4168,-5.3975,-5.3979,-5.43,-5.431,-5.4319,-5.4517,0,0,0,0,0,0,-5.4177,-5.4186,-5.424,-5.419,-5.419,-5.4295,-5.4137,-5.4118,-5.4128,-5.411,-5.4069,-5.4056,-5.3988,-5.4073,-5.4082,-5.417,-5.3982,-5.4291,-5.4304,-5.4316,-5.4502,-5.4532,-5.4558,0,0,0,0,0,-5.4176,-5.4298,-5.4244,-5.4251,-5.4257,-5.43,-5.43,-5.4219,-5.4136,-5.4192,-5.4148,-5.4058,-5.4157,-5.4083,-5.4092,-5.4182,-5.4285,-5.4301,-5.4315,-5.4489,-5.4526,-5.4558,0,0,0,0,0,0,-5.4361,-5.4289,-5.4229,-5.4338,-5.4327,-5.4269,-5.4336,-5.4261,-5.4272,-5.4255,-5.4154,-5.4146,-5.4245,-5.4222,-5.4141,-5.4325,-5.4206,-5.4224,-5.4336,-5.437,-5.4398,-5.4401,-5.3985,0,0,0,0,0,-5.4415,-5.4455,-5.439,-5.4493,-5.4491,-5.4416,-5.4431,-5.437,-5.4353,-5.4348,-5.4309,-5.4298,-5.4327,-5.4347,-5.437,-5.4499,-5.4487,-5.4565,-5.4594,-5.4617,-5.4633,-5.47,-5.4734,-5.4372,-5.4372,-5.4372,0,0,-5.4526,-5.4492,-5.4523,-5.453,-5.4513,-5.4558,-5.4412,-5.4465,-5.4497,-5.4356,-5.4431,-5.4405,-5.4385,-5.4492,-5.4538,-5.4476,-5.4731,-5.4636,-5.4656,-5.4658,-5.4719,-5.4754,-5.4784,-5.4382,-5.438,-5.4379,0,0,-5.4751,-5.4729,-5.4812,-5.48,-5.4777,-5.4727,-5.4748,-5.4702,-5.4679,-5.4754,-5.4649,-5.4687,-5.4738,-5.4729,-5.4731,-5.4957,-5.4875,-5.4967,-5.5114,-5.5181,-5.521,-5.5234,-5.5315,-5.5345,-5.4984,-5.4984,-5.4984,0,-5.4891,-5.4953,-5.4865,-5.4926,-5.4932,-5.4807,-5.4892,-5.4884,-5.4871,-5.4879,-5.481,-5.4873,-5.4851,-5.4955,-5.5011,-5.5017,-5.5037,-5.497,-5.5213,-5.5236,-5.5258,-5.5334,-5.5365,-5.4995,-5.4994,-5.4993,-5.4992,0,-5.5128,-5.5173,-5.5244,-5.5234,-5.5249,-5.5322,-5.5246,-5.5272,-5.5211,-5.5168,-5.5248,-5.5218,-5.5232,-5.5253,-5.5193,-5.5349,-5.5312,-5.523,-5.5108,-5.5306,-5.5375,-5.5403,-5.5012,-5.5008,-5.5004,-5.5001,0,0,-5.5464,-5.5408,-5.5435,-5.543,-5.5397,-5.5431,-5.55,-5.5514,-5.5538,-5.5535,-5.5589,-5.5637,-5.5562,-5.5565,-5.5504,-5.5563,-5.5744,-5.5473,-5.5471,-5.5524,-5.5915,-5.5976,-5.6011,-5.5691,-5.5696,-5.57,-5.5916,0,-5.5678,-5.579,-5.5714,-5.5839,-5.588,-5.5764,-5.5823,-5.5811,-5.5774,-5.5805,-5.5764,-5.58,-5.5697,-5.5698,-5.5752,-5.5711,-5.5821,-5.5694,-5.5741,-5.5744,-5.5748,-5.6047,-5.611,-5.6316,-5.5943,-5.5947,-5.5951,0,-5.5941,-5.5949,-5.6079,-5.604,-5.6054,-5.6109,-5.6117,-5.6148,-5.6132,-5.6102,-5.6107,-5.6031,-5.6097,-5.5979,-5.6068,-5.5984,-5.5999,-5.5983,-5.5989,-5.5988,-5.5858,-5.6054,-5.6379,-5.641,-5.5993,-5.5989,-5.5986,0,-5.6173,-5.6217,-5.63,-5.6299,-5.6256,-5.6298,-5.6282,-5.626,-5.6275,-5.6283,-5.6291,-5.6307,-5.6316,-5.6331,-5.6263,-5.6183,-5.6361,-5.6238,-5.6338,-5.634,-5.6378,-5.6377,-5.671,-5.6392,-5.6391,-5.6391,-5.639,0,-5.6419,-5.6502,-5.6404,-5.6455,-5.6546,-5.6459,-5.6552,-5.6524,-5.6506,-5.6551,-5.6452,-5.6496,-5.6403,-5.6439,-5.6386,-5.6468,-5.6473,-5.6451,-5.6435,-5.6459,-5.6462,-5.6466,-5.6449,-5.6399,-5.6397,-5.6395,-5.6394,0,-5.6692,-5.6629,-5.6712,-5.6666,-5.6656,-5.6725,-5.6686,-5.6732,-5.669,-5.6747,-5.6756,-5.669,-5.6726,-5.666,-5.6688,-5.6653,-5.6768,-5.6732,-5.6774,-5.6762,-5.6866,-5.6857,-5.7212,-5.7255,-5.6911,-5.6914,-5.6917,0,-5.6851,-5.6913,-5.6874,-5.6896,-5.6886,-5.6924,-5.6939,-5.6858,-5.6877,-5.6866,-5.6914,-5.6942,-5.696,-5.7024,-5.698,-5.7001,-5.6963,-5.7087,-5.6966,-5.6988,-5.6964,-5.6961,-5.6967,-5.7111,-5.7115,-5.7119,-5.7121,0,-5.7141,-5.7108,-5.7132,-5.7148,-5.7168,-5.7176,-5.7177,-5.7202,-5.7116,-5.7144,-5.718,-5.7194,-5.7224,-5.7253,-5.7265,-5.7249,-5.7172,-5.716,-5.7184,-5.7208,-5.7229,-5.7219,-5.684,-5.7152,-5.7149,-5.7146,-5.7145,-5.7144,-5.7361,-5.7411,-5.7392,-5.7423,-5.7416,-5.742,-5.7461,-5.7426,-5.7454,-5.7471,-5.7423,-5.7471,-5.7456,-5.7464,-5.7457,-5.7494,-5.7439,-5.7474,-5.7483,-5.7493,-5.7509,-5.7226,-5.7496,-5.7495,-5.7494,-5.7493,-5.7493,0,-5.7645,-5.7628,-5.7658,-5.7663,-5.7689,-5.7615,-5.7613,-5.7639,-5.7683,-5.7676,-5.7696,-5.7739,-5.7769,-5.7728,-5.775,-5.7788,-5.7753,-5.7796,-5.7792,-5.779,-5.7557,-5.7533,-5.7824,-5.7824,-5.7824,-5.7824,-5.7824,-5.7824,-5.7795,-5.7876,-5.7842,-5.7919,-5.7901,-5.7947,-5.7953,-5.7957,-5.7951,-5.8003,-5.8027,-5.8,-5.798,-5.8001,-5.8025,-5.8012,-5.8025,-5.8081,-5.8056,-5.7838,-5.7806,-5.7775,-5.7752,-5.8084,-5.8085,-5.8285,-5.8287,-5.8288]},{"header":{"parameterUnit":"m.s-1","parameterCategory":1,"la1":30.2991,"la2":30.254,"lo1":-89.0895,"lo2":-89.0444,"dy":0.0017,"dx":0.0017,"nx":28,"ny":28,"refTime":"2024-06-19T21:00:00:Z","depth":0,"parameterNumber":3,"parameterNumberName":"V-component_of_WINDS"},"data":[0,0,0,0,0,0,0,0,0,0,0,0,0,0,0,0,0,0,0,0,0,0,0,0,0,0,0,0,0,0,0,0,0,0,0,0,0,0,0,0,0,0,0,0,0,0,0,0,0,0,0,0,0,0,0,0,0,0,1.4724,1.4724,0,1.4768,1.4769,1.4769,1.483,1.4831,1.4832,1.4833,1.487,1.487,1.487,0,0,0,0,0,0,0,0,0,0,0,0,0,1.4686,1.4687,1.4724,1.4724,1.4725,1.4768,1.4769,1.4769,1.4829,1.4831,1.4832,1.4833,1.487,1.487,1.487,0,0,0,0,0,0,0,0,0,0,0,0,0,1.4714,1.4687,1.4724,1.476,1.4764,1.4768,1.4769,1.477,1.4829,1.4831,1.4832,1.4834,1.487,1.487,1.487,1.484,0,0,1.4871,1.4871,0,0,0,0,0,0,0,0,1.4712,1.4715,1.4754,1.4758,1.4762,1.4795,1.477,1.4793,1.4829,1.4804,1.4833,1.4834,1.4843,1.4846,1.4851,1.4842,1.4843,1.4871,1.4871,1.4871,1.4871,0,0,0,0,0,0,0,1.471,1.4713,1.4741,1.4755,1.4759,1.4773,1.4779,1.4774,1.4814,1.4806,1.4811,1.4816,1.4846,1.485,1.4852,1.4844,1.4871,1.4871,1.4871,1.4871,1.4815,1.4814,0,0,0,0,0,0,1.4704,1.4711,1.474,1.4743,1.4741,1.4773,1.4779,1.4783,1.4815,1.4821,1.4814,1.4818,1.485,1.4852,1.4853,1.4821,1.4871,1.4871,1.4871,1.4817,1.4815,1.4813,0,0,0,0,0,0,1.4703,1.4706,1.4738,1.4728,1.4734,1.4772,1.4776,1.4783,1.4788,1.4821,1.4828,1.4812,1.4851,1.4853,1.4844,1.4823,1.4871,1.4871,1.4818,1.4816,1.4814,1.4755,0,0,0,0,0,0,1.4701,1.4705,1.4694,1.4728,1.4734,1.4729,1.4774,1.4783,1.4788,1.4794,1.482,1.4826,1.4852,1.4844,1.4844,1.4824,1.4871,1.482,1.4817,1.4815,1.4759,1.4751,1.4745,0,0,0,0,0,1.47,1.4673,1.4693,1.4696,1.4722,1.4727,1.4731,1.4764,1.4786,1.4776,1.4798,1.4825,1.4826,1.4842,1.4843,1.4823,1.4822,1.4818,1.4815,1.4763,1.4753,1.4745,0,0,0,0,0,0,1.4632,1.4678,1.4701,1.4685,1.4703,1.4738,1.4725,1.4752,1.4761,1.4765,1.4804,1.4809,1.4795,1.4809,1.4825,1.4797,1.4828,1.4825,1.4788,1.4779,1.4772,1.4768,1.4871,0,0,0,0,0,1.4617,1.4619,1.4659,1.4641,1.4649,1.4686,1.4689,1.4714,1.4732,1.4739,1.476,1.4775,1.4779,1.478,1.4785,1.4763,1.4769,1.475,1.4742,1.4736,1.4732,1.4723,1.4715,1.4802,1.4802,1.4802,0,0,1.4582,1.4608,1.4606,1.4628,1.4644,1.4645,1.4691,1.4689,1.469,1.4737,1.4731,1.4747,1.4767,1.4751,1.4745,1.4762,1.471,1.4732,1.4727,1.4726,1.4718,1.471,1.4703,1.48,1.48,1.48,0,0,1.452,1.4539,1.4528,1.4545,1.4571,1.4596,1.4594,1.4626,1.464,1.4635,1.4672,1.4673,1.4678,1.4692,1.4699,1.4647,1.4673,1.4648,1.4608,1.4599,1.4592,1.4586,1.4568,1.4561,1.4644,1.4644,1.4644,0,1.4472,1.4477,1.4518,1.4515,1.4524,1.4573,1.4561,1.4575,1.4599,1.4604,1.4623,1.4634,1.465,1.4639,1.4627,1.4632,1.4629,1.4643,1.459,1.4585,1.458,1.4563,1.4556,1.4641,1.4641,1.4641,1.4642,0,1.4418,1.4421,1.4409,1.4436,1.4444,1.4436,1.4476,1.4478,1.4504,1.4527,1.4522,1.4545,1.4556,1.4556,1.4579,1.4549,1.4559,1.4584,1.4616,1.4568,1.4552,1.4546,1.4636,1.4637,1.4638,1.4639,0,0,1.431,1.4364,1.4359,1.4373,1.4408,1.441,1.4406,1.4421,1.4423,1.444,1.4437,1.4443,1.4468,1.4476,1.4502,1.4494,1.4453,1.452,1.4521,1.4506,1.4422,1.4403,1.4394,1.4471,1.447,1.4469,1.4421,0,1.4253,1.4251,1.429,1.4276,1.428,1.4328,1.4325,1.4345,1.4368,1.4374,1.4398,1.4402,1.4434,1.444,1.4435,1.4459,1.4436,1.4463,1.4467,1.4467,1.4459,1.4386,1.4365,1.4317,1.4415,1.4414,1.4413,0,1.4185,1.4203,1.4191,1.423,1.4233,1.4229,1.4248,1.4253,1.4278,1.4295,1.4308,1.4338,1.4336,1.4369,1.4367,1.4384,1.4389,1.4402,1.4401,1.4401,1.4436,1.4383,1.4303,1.4295,1.4404,1.4405,1.4406,0,1.4107,1.4128,1.4124,1.4135,1.418,1.4177,1.4195,1.4222,1.423,1.4246,1.4251,1.4266,1.4273,1.4284,1.4318,1.4338,1.4312,1.4347,1.4325,1.4324,1.4314,1.4314,1.4232,1.432,1.432,1.432,1.432,0,1.4039,1.4029,1.4091,1.4087,1.4079,1.4125,1.4114,1.4137,1.4161,1.4163,1.4206,1.4206,1.4253,1.4258,1.4285,1.4279,1.4282,1.4295,1.4302,1.4291,1.4289,1.4292,1.4296,1.4318,1.4318,1.4319,1.4319,0,1.3948,1.3989,1.3988,1.4034,1.4045,1.4036,1.4074,1.4073,1.4101,1.4104,1.4107,1.4149,1.4158,1.4195,1.4211,1.423,1.4215,1.4229,1.4207,1.4212,1.4188,1.4189,1.4104,1.4095,1.4189,1.4188,1.4187,0,1.3901,1.3896,1.3942,1.3948,1.3966,1.3974,1.3985,1.403,1.4038,1.4069,1.4064,1.4079,1.4092,1.4104,1.4135,1.4149,1.4164,1.4133,1.4165,1.4155,1.4163,1.4162,1.4162,1.4125,1.4124,1.4123,1.4122,0,1.3812,1.3834,1.3848,1.3871,1.3882,1.3901,1.3922,1.3924,1.3975,1.3982,1.3995,1.4006,1.4026,1.4039,1.4059,1.4076,1.4107,1.4113,1.4108,1.4095,1.4083,1.4089,1.4187,1.4113,1.4114,1.4115,1.4115,1.4115,1.3742,1.374,1.3774,1.3789,1.3811,1.3831,1.3834,1.3864,1.3876,1.3898,1.3925,1.3934,1.3962,1.3993,1.4009,1.4016,1.4033,1.4026,1.4024,1.4022,1.4017,1.4084,1.402,1.402,1.402,1.4021,1.4021,0,1.3655,1.3681,1.3695,1.3725,1.3738,1.3771,1.3797,1.3804,1.3813,1.3838,1.3852,1.3868,1.3882,1.3917,1.3934,1.3933,1.3948,1.3936,1.3936,1.3939,1.4,1.4002,1.3924,1.3924,1.3924,1.3924,1.3924,1.3924,1.3611,1.3612,1.3638,1.365,1.3676,1.3688,1.3701,1.3719,1.374,1.3757,1.377,1.3794,1.3824,1.3844,1.3859,1.3869,1.3873,1.3856,1.387,1.3926,1.3935,1.3943,1.3946,1.3857,1.3857,1.3809,1.3808,1.3808]}]]